sat.trackr.live / text

‹ back to catalog

COSMOS 2597 (RODNIK-S *)

NORAD 66647 · 2025-273A

PAYLOAD ACTIVE UNKNOWN

§ Identity

Operator
Country
CIS
Launch date
2025-11-25
Launch site
PLMSC
Launch vehicle
Mass (kg)
RCS (m²)

External: N2YO · Heavens-Above · Gunter

§ Orbital elements

Epoch: 2026-05-25T03:18:10.615104Z

Period
115.86 min
Inclination
82.4997°
Eccentricity
0.0010421
Mean motion
12.42898775 rev/d
Perigee alt
1,486.1 km
Apogee alt
1,502.5 km
Semi-major
7,872.5 km
B*
5.5749e-5
RAAN
184.8529°
Arg perigee
266.6851°
Mean anomaly
93.3037°
Rev number
2,243

§ Raw data

COSMOS 2597 (RODNIK-S *)1 66647U 25273A   26145.13762286  .00000018  00000+0  55749-4 0  99932 66647  82.4997 184.8529 0010421 266.6851  93.3037 12.42898775 22438

JSON: /api/v1/satellites/66647 · /tle

For live sub-satellite position, see the globe view (requires WebGL).

§ Visibility from observer

Set your observer location to see the next 7 days of passes ≥ 10°. The values pass through the URL so the page stays shareable.

No JS? Fill the form by hand. The geolocation button needs JavaScript.